Location: Newark
(51.3318°N, 0.0053°E)
Time: 21:35:52
(UTC+00:00)

DIWATA 2B (PO-101) - Pass Details

Date: 07 July 2022
Orbit: 583 x 599 km, 98.0° (Epoch: 16 August)

Event Time Altitude Azimuth Distance (km) Brightness Sun altitude
Exits shadow 02:29:57 12° 203° (SSW) 1,784 ? -9.5°
Maximum altitude 02:33:18 32° 264° (W) 1,046 ? -9.2°
Drops below altitude 10° 02:37:06 10° 328° (NNW) 1,951 ? -8.9°
Sets 02:39:29 0° 339° (NNW) 2,857 ? -8.7°
